Weather History for Nome, AK

Change the Weather History Date:

Friday, March 28, 2014

  Actual Average Record
Temperature  
Mean Temperature 16 °F 12 °F  
Max Temperature 25 °F 20 °F 39 °F (1926)
Min Temperature 7 °F - -33 °F (1920)
Degree Days  
Heating Degree Days 49 53  
Month to date heating degree days 1476 1538  
Since 1 July heating degree days 9622 10820  
Cooling Degree Days 0    
Month to date cooling degree days 0  
Year to date cooling degree days 0  
Moisture  
Dew Point 14 °F    
Average Humidity 0    
Maximum Humidity 0    
Minimum Humidity 0    
Precipitation  
Precipitation 0.00 in 0.02 in 0.39 in (1938)
Month to date precipitation 0.53 0.59  
Year to date precipitation 2.70 2.46  
Snow  
Snow 0.00 in 0.20 in 4.80 in (1938)
Month to date snowfall 12.3 8.1  
Since 1 July snowfall 66.6 64.8  
Snow Depth 11.00 in    
Sea Level Pressure  
Sea Level Pressure 29.94 in    
Wind  
Wind Speed 3 mph (NW)    
Max Wind Speed 8 mph    
Max Gust Speed 11 mph    
Visibility 10 miles    
Events      
T = Trace of Precipitation, MM = Missing Value Source: NWS Daily Summary

Daily Weather History Graph

Daily Weather History Graph

Search for Another Location

Airport:

Trip Planner

Search our weather history database for the weather conditions in past years. The results will help you decide how hot, cold, wet, or windy it might be!

Date:

Astronomy

Mar. 28, 2014 Rise Set
Actual Time 8:32 AM AKDT 9:42 PM AKDT
Civil Twilight 7:42 AM AKDT 10:32 PM AKDT
Nautical Twilight 6:39 AM AKDT 11:36 PM AKDT
Astronomical Twilight 5:21 AM AKDT 12:56 AM AKDT
Moon 7:53 AM AKDT (3/28) 7:21 PM AKDT (3/28)
Length of Visible Light 14h 49m
Length of Day
13h 10m
Waning Crescent, 5% of the Moon is Illuminated
Mar 28
Waning Crescent
Mar 30
New
Apr 7
First Quarter
Apr 14
Full
Apr 21
Last Quarter

Hourly Weather History & Observations

Time (AKDT) Temp. Windchill Dew Point Humidity Pressure Visibility Wind Dir Wind Speed Gust Speed Precip Events Conditions
12:53 AM 23.0 °F 17.0 °F 18.0 °F 81% 30.06 in 10.0 mi East 4.6 mph - N/A   Overcast
1:53 AM 23.0 °F 17.0 °F 18.0 °F 81% 30.06 in 10.0 mi NNE 4.6 mph - N/A   Overcast
2:53 AM 21.9 °F 17.2 °F 18.0 °F 85% 30.06 in 10.0 mi North 3.5 mph - N/A   Overcast
3:53 AM 19.0 °F 10.0 °F 16.0 °F 88% 30.06 in 10.0 mi North 6.9 mph - N/A   Overcast
4:51 AM 15.8 °F 7.2 °F 12.2 °F 86% 30.04 in 10.0 mi North 5.8 mph - N/A   Overcast
4:53 AM 16.0 °F 6.3 °F 14.0 °F 92% 30.04 in 10.0 mi North 6.9 mph - N/A   Mostly Cloudy
5:10 AM 14.0 °F 6.5 °F 12.0 °F 92% 30.03 in 10.0 mi North 4.6 mph - N/A   Scattered Clouds
5:53 AM 10.0 °F 3.6 °F 8.1 °F 92% 30.03 in 10.0 mi NNW 3.5 mph - N/A   Clear
6:53 AM 10.9 °F 4.7 °F 9.0 °F 92% 30.02 in 10.0 mi North 3.5 mph - N/A   Clear
7:53 AM 10.0 °F - 8.1 °F 92% 30.00 in 10.0 mi Calm Calm - N/A   Partly Cloudy
8:53 AM 7.0 °F - 5.0 °F 92% 29.99 in 10.0 mi Calm Calm - N/A   Partly Cloudy
9:53 AM 10.0 °F - 7.0 °F 87% 29.97 in 10.0 mi Calm Calm - N/A   Partly Cloudy
10:53 AM 12.9 °F - 10.0 °F 88% 29.96 in 10.0 mi Calm Calm - N/A   Partly Cloudy
11:53 AM 17.1 °F - 12.9 °F 84% 29.96 in 10.0 mi Calm Calm - N/A   Partly Cloudy
12:53 PM 23.0 °F 18.4 °F 16.0 °F 74% 29.94 in 10.0 mi NNW 3.5 mph - N/A   Partly Cloudy
1:53 PM 19.9 °F 13.4 °F 16.0 °F 85% 29.92 in 10.0 mi SW 4.6 mph - N/A   Partly Cloudy
2:53 PM 21.9 °F 15.7 °F 17.1 °F 82% 29.91 in 10.0 mi West 4.6 mph - N/A   Partly Cloudy
3:53 PM 23.0 °F 14.7 °F 17.1 °F 78% 29.89 in 10.0 mi West 6.9 mph - N/A   Partly Cloudy
4:53 PM 24.1 °F 16.0 °F 19.0 °F 81% 29.87 in 10.0 mi West 6.9 mph - N/A   Partly Cloudy
5:53 PM 24.1 °F 15.2 °F 19.9 °F 84% 29.86 in 10.0 mi West 8.1 mph - N/A   Scattered Clouds
6:53 PM 25.0 °F 19.3 °F 19.0 °F 78% 29.84 in 10.0 mi West 4.6 mph - N/A   Scattered Clouds
7:53 PM 24.1 °F 18.2 °F 18.0 °F 77% 29.81 in 10.0 mi West 4.6 mph - N/A   Scattered Clouds
8:53 PM 21.9 °F - 17.1 °F 82% 29.80 in 10.0 mi Calm Calm - N/A   Partly Cloudy
9:53 PM 19.0 °F - 16.0 °F 88% 29.78 in 10.0 mi Calm Calm - N/A   Partly Cloudy
10:53 PM 18.0 °F - 14.0 °F 84% 29.78 in 10.0 mi Calm Calm - N/A   Clear
11:53 PM 16.0 °F - 12.9 °F 88% 29.78 in 10.0 mi Calm Calm - N/A   Clear